星链-30575 (STARLINK-30575 )

导读 | 星芒AI

STARLINK-30575 是 SpaceX 星链计划中的一颗低轨通信卫星,属于第 11 批星链卫星组(v1.5 版本)。该卫星于 2023 年 9 月 23 日由猎鹰 9 号火箭从美国卡纳维拉尔角发射升空。它运行在约 540 公里的轨道高度,旨在为全球用户提供高速互联网服务。星链计划最终目标是部署数万颗卫星,构建全球覆盖的宽带网络系统。STARLINK-30575 与其他星链卫星协同工作,提升偏远地区的网络连接能力。

基本信息
目录编号:
58052
目录名称:
STARLINK-30575
国际标识:
2023-158B
轨道中心:
EARTH
卫星名称:
星链-30575
卫星全名:
星链-30575 (STARLINK-30575 )
卫星状态:
在轨 (已飞行749 天)
发射日期:
2023-10-13 UTC
国别 :
美国 (US)
星等 :
--
轨道信息
数据来源 国际轨道数据
星历时间: 2025-10-30T23:17:00+0800
15小时前
查看轨道信息
半长轴: 6937.21km
偏心率: 0.0001522
轨道倾角: 43.007°
近地点辐角 273.817°
升交点赤经 17.378°
平近点角 86.250°
近地点: 558.019km
远地点: 560.131km
周期: 95.838分钟
每日圈数: 15.025382
详细信息
固有亮度:
5
最大亮度:
0.3
卫星平台:
Starlink v2.0 mini
覆盖范围:
全球
运营商:
太空探索技术公司
运营商所在国:
美国
制造商(研发单位):
太空探索技术公司
制造商所在国:
美国
使用方式:
暂无
卫星简介
星链(Starlink)计划是由太空探索技术公司(SpaceX)提出的一个巨型低轨卫星互联网星座项目,计划在2019年至2024年间在太空搭建由约1.2万颗卫星组成的“星链”网络,其中1584颗将部署在地球上空550千米处的近地轨道,并从2020年开始工作。该卫星仍在工作。
2D轨道图
3D轨道图
轨道高度分析图
轨道倾角分析图
轨道综合分析图
查看轨道综合分析图